FW6835 Weather Reports


time (UTC)temp
F
wind
direction
speed
knots
gust
knots
rain 1hr
in
rain 24hr
in
rain mn
in
humidity
%
barometer
mb
20260905150522 62 276 1.7 11.3 0.00 0.24 0.03 67 1019.5
20260905150026 63 246 4.3 11.3 0.00 0.24 0.03 64 1019.4
20260905145521 63 215 1.7 10.4 0.00 0.24 0.03 66 1019.4
20260905145021 62 257 3.5 13.0 0.00 0.24 0.03 66 1019.4
20260905144539 62 242 4.3 13.0 0.00 0.24 0.03 66 1019.3
20260905144020 62 248 3.5 9.6 0.00 0.24 0.03 67 1019.4
20260905143519 62 242 2.6 8.7 0.00 0.24 0.03 66 1019.4
20260905143023 63 234 1.7 8.7 0.00 0.24 0.03 65 1019.5
20260905142518 63 119 3.5 10.4 0.00 0.24 0.03 65 1019.4
20260905142022 63 305 4.3 12.2 0.00 0.24 0.03 64 1019.4
20260905141530 64 174 4.3 13.9 0.00 0.24 0.03 65 1019.3
20260905141018 64 271 4.3 13.9 0.00 0.24 0.03 64 1019.4
20260905140518 65 279 5.2 12.2 0.00 0.24 0.03 64 1019.4
20260905140018 65 266 2.6 12.2 0.00 0.24 0.03 65 1019.4
20260905135518 64 218 2.6 11.3 0.00 0.24 0.03 65 1019.5
20260905135017 64 197 2.6 13.9 0.00 0.24 0.03 69 1019.3
20260905134518 62 293 4.3 13.9 0.00 0.24 0.03 67 1019.3
20260905134017 63 274 1.7 10.4 0.00 0.24 0.03 66 1019.3
20260905133517 63 306 2.6 9.6 0.00 0.24 0.03 66 1019.2
20260905133019 64 260 3.5 10.4 0.00 0.24 0.03 65 1019.2
20260905132520 63 218 3.5 12.2 0.00 0.24 0.03 65 1019.2
20260905132017 64 294 5.2 12.2 0.00 0.24 0.03 64 1019.2
20260905131516 64 268 5.2 12.2 0.00 0.24 0.03 63 1019.1
20260905131016 65 179 3.5 9.6 0.00 0.24 0.03 65 1019.2
20260905130515 65 261 4.3 13.9 0.00 0.24 0.03 66 1019.1
20260905130015 64 118 3.5 13.9 0.00 0.24 0.03 69 1019.1
20260905125515 64 227 4.3 11.3 0.00 0.24 0.03 64 1019.1
20260905125015 65 335 4.3 11.3 0.00 0.24 0.03 65 1019.2
20260905124515 64 227 4.3 13.9 0.00 0.24 0.03 67 1019.1
20260905124013 64 319 5.2 13.9 0.00 0.24 0.03 66 1019.3
20260905123612 64 232 3.5 9.6 0.00 0.24 0.03 67 1019.2
20260905123012 64 313 4.3 10.4 0.00 0.24 0.03 65 1019.1
20260905122512 64 229 2.6 15.6 0.00 0.24 0.03 66 1019.1
20260905122011 63 279 6.1 13.9 0.00 0.24 0.03 67 1019.2
20260905121512 63 287 4.3 12.2 0.00 0.24 0.03 69 1019.3
20260905121012 63 323 5.2 12.2 0.00 0.24 0.03 67 1019.4
20260905120514 62 273 4.3 12.2 0.00 0.24 0.03 69 1019.3
20260905120011 62 242 4.3 11.3 0.00 0.24 0.03 67 1019.3
20260905115512 64 215 3.5 11.3 0.00 0.24 0.03 65 1019.4
20260905115014 64 315 6.1 11.3 0.00 0.24 0.03 65 1019.2
20260905114509 64 234 3.5 12.2 0.00 0.24 0.03 71 1019.2
20260905114008 63 227 4.3 12.2 0.00 0.24 0.03 68 1019.3
20260905113507 63 192 6.1 13.0 0.00 0.24 0.03 67 1019.4
20260905113008 63 215 4.3 11.3 0.00 0.24 0.03 70 1019.3
20260905112507 61 200 2.6 11.3 0.00 0.24 0.03 72 1019.4
20260905112010 62 190 4.3 8.7 0.00 0.24 0.03 69 1019.4
20260905111507 62 237 2.6 9.6 0.00 0.24 0.03 71 1019.4
20260905111007 61 248 2.6 8.7 0.00 0.24 0.03 76 1019.4
20260905110505 60 215 2.6 12.2 0.00 0.24 0.03 76 1019.4
20260905110013 61 246 3.5 13.0 0.00 0.24 0.03 72 1019.4
20260905105506 62 288 4.3 13.0 0.00 0.24 0.03 70 1019.3
20260905105008 63 300 2.6 12.2 0.00 0.24 0.03 71 1019.1
20260905104505 63 178 3.5 12.2 0.00 0.24 0.03 73 1019.1
20260905104003 63 213 4.3 10.4 0.00 0.24 0.03 72 1019.2
20260905103502 62 250 4.3 12.2 0.00 0.24 0.03 72 1019.2
20260905103101 61 260 4.3 12.2 0.00 0.24 0.03 72 1019.2
20260905102603 60 286 2.6 7.8 0.00 0.24 0.03 74 1019.1
20260905102100 61 228 1.7 9.6 0.00 0.24 0.03 72 1019.2
20260905101600 61 271 3.5 9.6 0.00 0.24 0.03 73 1019.3
20260905101058 61 216 1.7 10.4 0.00 0.24 0.03 75 1019.3
20260905100559 60 293 3.5 10.4 0.00 0.24 0.03 77 1019.4
20260905100114 59 302 2.6 6.1 0.00 0.24 0.03 75 1019.2
20260905095557 60 279 1.7 9.6 0.00 0.24 0.03 75 1019.3
20260905095059 60 261 2.6 8.7 0.00 0.24 0.03 75 1019.2
20260905094610 60 220 3.5 12.2 0.00 0.24 0.03 76 1019.0
20260905094056 59 198 3.5 12.2 0.00 0.24 0.03 77 1019.1
20260905093556 59 200 1.7 7.8 0.00 0.24 0.03 75 1019.2
20260905093058 60 232 2.6 7.0 0.00 0.24 0.03 76 1019.1
20260905092555 60 269 2.6 8.7 0.00 0.24 0.03 77 1018.8
20260905092053 60 184 3.5 11.3 0.00 0.24 0.03 77 1018.7
20260905091605 60 192 2.6 11.3 0.00 0.24 0.03 80 1018.9
20260905091052 59 184 3.5 11.3 0.00 0.24 0.03 80 1019.0
20260905090550 59 213 2.6 10.4 0.00 0.24 0.03 79 1018.8
20260905090050 59 271 2.6 10.4 0.00 0.24 0.03 80 1018.8
20260905085550 59 226 2.6 11.3 0.00 0.24 0.03 80 1018.7
20260905085049 59 173 3.5 11.3 0.00 0.24 0.03 79 1018.6
20260905084548 59 250 3.5 8.7 0.00 0.24 0.03 81 1018.6
20260905084046 58 219 1.7 12.2 0.00 0.24 0.03 84 1018.6
20260905083554 58 201 2.6 12.2 0.00 0.24 0.03 85 1018.5
20260905083045 58 295 1.7 7.8 0.00 0.24 0.03 85 1018.5
20260905082544 58 186 3.5 8.7 0.00 0.24 0.03 85 1018.6
20260905082044 58 259 0.9 8.7 0.00 0.24 0.03 86 1018.6
20260905081544 58 196 2.6 8.7 0.00 0.24 0.03 86 1018.5
20260905081043 58 302 3.5 7.8 0.00 0.24 0.03 87 1018.4
20260905080540 57 205 1.7 6.1 0.00 0.24 0.03 88 1018.6
20260905080042 57 196 2.6 9.6 0.00 0.24 0.03 86 1018.4
20260905075539 57 239 2.6 9.6 0.00 0.24 0.03 87 1018.4
20260905075038 57 190 2.6 8.7 0.00 0.24 0.03 88 1018.3
20260905074551 57 246 2.6 8.7 0.00 0.24 0.03 88 1018.3
20260905074035 56 252 1.7 6.1 0.00 0.24 0.03 89 1018.3
20260905073536 56 240 1.7 12.2 0.00 0.24 0.03 90 1018.3
20260905073055 56 191 1.7 12.2 0.00 0.24 0.03 91 1018.2
20260905072537 56 155 3.5 8.7 0.00 0.24 0.03 91 1018.3
20260905072035 56 243 2.6 6.1 0.00 0.24 0.03 92 1018.3
20260905071533 55 228 1.7 8.7 0.00 0.24 0.03 94 1018.1
20260905071034 55 257 2.6 8.7 0.00 0.24 0.03 94 1018.2
20260905070532 55 254 3.5 6.1 0.00 0.24 0.03 94 1018.1
20260905070032 55 237 2.6 6.1 0.00 0.24 0.03 95 1018.0
20260905065530 55 268 0.9 5.2 0.00 0.24 0.03 96 1018.1
20260905065034 55 258 0.9 4.3 0.00 0.24 0.03 96 1018.1
20260905064530 55 240 0.9 7.8 0.00 0.24 0.03 97 1017.9
20260905064029 54 207 1.7 7.8 0.00 0.24 0.03 96 1018.0
20260905063531 55 213 1.7 6.1 0.00 0.24 0.03 97 1018.0
20260905063028 54 251 0.0 4.3 0.00 0.24 0.03 97 1017.9
20260905062526 54 259 0.9 5.2 0.00 0.24 0.03 97 1018.0
20260905062030 54 233 0.9 5.2 0.00 0.24 0.03 97 1017.9
20260905061526 54 240 0.9 4.3 0.00 0.24 0.03 97 1017.8
20260905061026 54 245 0.9 4.3 0.00 0.24 0.03 97 1017.7
20260905060524 54 242 0.9 4.3 0.00 0.24 0.03 97 1017.6
20260905060024 54 295 0.9 5.2 0.00 0.24 0.03 97 1017.4
20260905055522 54 215 1.7 5.2 0.00 0.24 0.03 97 1017.6
20260905055022 54 235 2.6 9.6 0.00 0.24 0.03 97 1017.5
20260905054522 54 250 4.3 9.6 0.00 0.24 0.03 97 1017.5
20260905054021 54 234 1.7 7.0 0.00 0.24 0.03 97 1017.4
20260905053520 54 259 1.7 6.1 0.00 0.24 0.03 97 1017.2
20260905053020 54 301 0.9 6.1 0.00 0.24 0.03 98 1017.3
20260905052517 54 232 1.7 7.8 0.00 0.24 0.03 98 1017.1
20260905052017 54 254 2.6 7.0 0.00 0.24 0.03 98 1017.0
20260905051517 54 233 0.9 6.1 0.00 0.24 0.03 98 1016.9
20260905051015 54 232 0.9 5.2 0.00 0.24 0.03 98 1016.8
20260905050518 54 209 0.9 7.0 0.00 0.24 0.03 98 1016.8
20260905050017 54 235 0.9 7.0 0.00 0.24 0.03 98 1016.7
20260905045514 54 188 0.0 6.1 0.00 0.24 0.03 98 1016.7
20260905045013 54 169 1.7 6.1 0.00 0.24 0.03 98 1016.6
20260905044512 54 261 0.0 6.1 0.00 0.24 0.03 98 1016.5
20260905044011 54 217 1.7 4.3 0.00 0.24 0.03 98 1016.6
20260905043513 54 250 1.7 4.3 0.00 0.24 0.03 98 1016.5
20260905043014 54 219 0.0 3.5 0.00 0.24 0.03 98 1016.5
20260905042513 54 227 1.7 5.2 0.00 0.24 0.03 98 1016.3
20260905042010 54 246 1.7 5.2 0.00 0.24 0.03 98 1016.5
20260905041509 54 192 0.0 3.5 0.00 0.24 0.03 98 1016.4
20260905041008 54 211 0.9 3.5 0.00 0.24 0.03 98 1016.4
20260905040508 54 205 0.0 6.1 0.00 0.24 0.03 98 1016.4
20260905040011 54 179 1.7 7.0 0.00 0.24 0.03 98 1016.2
20260905035506 54 241 0.9 6.1 0.00 0.24 0.03 97 1016.2
20260905035006 54 207 1.7 7.0 0.00 0.24 0.03 98 1016.3
20260905034506 54 221 1.7 7.0 0.00 0.24 0.03 98 1016.1
20260905034004 54 328 2.6 6.1 0.00 0.24 0.03 98 1015.8
20260905033503 54 281 0.9 6.1 0.00 0.24 0.03 98 1015.9
20260905033010 54 206 2.6 6.1 0.00 0.24 0.03 98 1015.9
20260905032502 54 264 0.0 6.1 0.00 0.24 0.03 98 1015.9
20260905032003 54 254 1.7 5.2 0.00 0.24 0.03 98 1015.5
20260905031504 54 246 0.9 5.2 0.00 0.24 0.03 98 1015.6
20260905031001 55 243 0.9 5.2 0.00 0.24 0.03 98 1015.6
20260905030502 55 292 1.7 8.7 0.00 0.24 0.03 98 1015.5
20260905030004 55 161 1.7 8.7 0.00 0.24 0.03 98 1015.6
20260905025600 55 252 0.9 2.6 0.00 0.24 0.03 98 1015.6
20260905025100 55 223 0.0 2.6 0.00 0.24 0.03 98 1015.3
20260905024600 55 201 0.0 3.5 0.00 0.24 0.03 98 1015.4
20260905024059 55 255 0.9 7.8 0.00 0.24 0.03 98 1015.5
20260905023559 55 230 0.9 7.8 0.00 0.24 0.03 98 1015.6
20260905023127 55 265 0.9 3.5 0.00 0.24 0.03 98 1015.7
20260905022557 55 178 0.0 3.5 0.00 0.24 0.03 98 1015.5
20260905022056 55 200 0.9 7.0 0.00 0.24 0.03 99 1015.2
20260905021600 55 244 0.9 9.6 0.00 0.24 0.03 99 1015.2
20260905021057 55 251 0.9 9.6 0.00 0.24 0.03 99 1015.0
20260905020559 55 203 1.7 9.6 0.00 0.24 0.03 99 1015.1
20260905020055 55 267 3.5 9.6 0.00 0.24 0.03 99 1014.6
20260905015554 55 234 1.7 6.1 0.00 0.24 0.03 99 1014.4
20260905015054 55 151 0.0 4.3 0.01 0.24 0.03 98 1014.0
20260905014556 55 217 0.9 6.1 0.01 0.24 0.03 98 1015.0
20260905014054 55 213 0.9 6.1 0.01 0.24 0.03 98 1014.9
20260905013556 55 238 0.0 3.5 0.01 0.24 0.03 98 1014.7
20260905013052 55 232 0.0 2.6 0.01 0.24 0.03 98 1014.3
20260905012552 55 279 0.0 3.5 0.01 0.24 0.03 98 1014.4
20260905012052 55 198 0.0 3.5 0.01 0.24 0.03 98 1013.7
20260905011557 55 135 0.0 6.1 0.01 0.24 0.03 98 1014.1
20260905011055 55 266 1.7 7.0 0.01 0.24 0.03 98 1014.7
20260905010553 55 269 1.7 7.0 0.01 0.24 0.03 98 1014.6
20260905010050 55 219 2.6 7.0 0.01 0.24 0.03 98 1014.9
20260905005552 55 267 1.7 5.2 0.01 0.24 0.03 98 1014.4
20260905005049 55 225 1.7 5.2 0.00 0.24 0.02 98 1014.4
20260905004549 55 273 0.0 3.5 0.00 0.24 0.02 98 1014.3
20260905004047 56 231 0.0 4.3 0.00 0.24 0.02 98 1014.2
20260905003547 56 261 0.9 6.1 0.00 0.24 0.02 99 1014.4
20260905003047 56 163 0.9 6.1 0.00 0.24 0.02 99 1014.8
20260905002548 56 283 1.7 6.1 0.00 0.24 0.02 99 1014.9
20260905002049 56 189 1.7 6.1 0.00 0.24 0.02 99 1014.9
20260905001545 56 216 0.9 7.8 0.00 0.24 0.02 99 1014.9
20260905001046 56 269 2.6 7.8 0.00 0.24 0.02 99 1014.7
20260905000545 56 159 2.6 9.6 0.00 0.24 0.02 99 1014.6
20260905000053 56 267 3.5 10.4 0.00 0.24 0.02 98 1014.2
20260904235541 56 229 1.7 10.4 0.00 0.24 0.02 99 1014.1
20260904235041 56 169 1.7 7.8 0.00 0.24 0.02 99 1014.2
20260904234540 56 246 1.7 7.8 0.00 0.24 0.02 98 1014.2
20260904234041 56 176 1.7 7.8 0.00 0.24 0.02 98 1014.3
20260904233539 56 134 0.9 5.2 0.00 0.24 0.02 98 1014.2
20260904233038 56 213 0.9 6.1 0.01 0.24 0.02 98 1014.1
20260904232537 56 192 0.9 4.3 0.02 0.24 0.02 98 1013.9
20260904232037 56 183 0.9 6.1 0.02 0.24 0.02 98 1013.5
20260904231536 56 241 1.7 6.1 0.02 0.24 0.02 98 1013.8
20260904231036 56 199 1.7 5.2 0.02 0.24 0.02 98 1013.9
20260904230535 57 205 0.9 7.0 0.02 0.24 0.02 98 1014.0
20260904230035 57 284 2.6 12.2 0.02 0.24 0.02 98 1013.6
20260904225534 57 235 3.5 14.8 0.03 0.24 0.02 98 1013.7
20260904225032 57 103 3.5 12.2 0.03 0.24 0.02 98 1013.3
20260904224533 57 247 4.3 12.2 0.04 0.24 0.02 98 1013.5
20260904224032 57 227 1.7 10.4 0.05 0.24 0.02 98 1013.5
20260904223530 57 292 1.7 10.4 0.06 0.24 0.02 98 1013.2
20260904223030 57 142 0.0 3.5 0.06 0.22 0.01 98 1013.3
20260904222529 57 103 0.0 0.9 0.07 0.22 0.01 98 1013.4
20260904222029 57 269 0.0 0.9 0.10 0.21 0.00 98 1013.4
20260904221529 57 211 0.0 5.2 0.13 0.21 0.00 98 1013.2
20260904221028 57 191 2.6 7.0 0.14 0.21 0.00 98 1013.2
20260904220527 57 238 0.9 7.0 0.14 0.21 0.00 98 1013.1
20260904220043 57 218 1.7 7.8 0.14 0.21 0.00 97 1013.2
20260904215525 57 234 1.7 7.8 0.13 0.20 0.20 97 1013.1
20260904215025 57 192 0.9 7.0 0.13 0.20 0.20 97 1012.7
20260904214526 57 255 0.0 7.0 0.13 0.20 0.20 97 1012.8
20260904214025 57 244 0.0 7.8 0.11 0.18 0.18 97 1013.0
20260904213528 57 155 0.0 7.0 0.10 0.17 0.17 97 1013.0
20260904213025 57 273 1.7 6.1 0.09 0.17 0.17 96 1012.9
20260904212527 57 202 0.0 7.8 0.08 0.15 0.15 96 1013.1
20260904212027 57 207 0.9 7.8 0.04 0.11 0.11 95 1012.8
20260904211524 57 191 0.0 0.0 0.01 0.08 0.08 95 1012.6
20260904211023 57 200 0.0 0.0 0.00 0.07 0.07 95 1012.7
20260904210523 57 207 0.0 0.9 0.00 0.07 0.07 95 1012.7
20260904210033 57 85 0.0 0.9 0.00 0.07 0.07 95 1012.4
20260904205523 57 104 0.0 0.0 0.00 0.07 0.07 95 1012.5
20260904205026 57 136 0.0 0.0 0.00 0.07 0.07 95 1012.8
20260904204522 56 85 0.0 0.0 0.00 0.07 0.07 95 1012.5
20260904204022 56 109 0.0 0.0 0.00 0.07 0.07 95 1012.3
20260904203526 56 84 0.0 0.9 0.00 0.07 0.07 95 1012.0
20260904203032 56 134 0.0 7.8 0.00 0.07 0.07 94 1011.8
20260904202521 57 101 0.9 7.8 0.00 0.07 0.07 95 1011.7
20260904202021 57 95 0.0 0.0 0.00 0.07 0.07 95 1012.1
20260904201521 57 207 0.0 3.5 0.00 0.07 0.07 94 1012.2
20260904201026 57 226 0.0 3.5 0.00 0.07 0.07 94 1012.0
20260904200520 57 91 0.0 0.9 0.00 0.07 0.07 94 1011.4
20260904200024 57 94 0.0 0.0 0.00 0.07 0.07 94 1011.7
20260904195522 57 69 0.0 4.3 0.00 0.07 0.07 94 1012.1
20260904195018 57 68 0.9 4.3 0.00 0.07 0.07 94 1012.1
20260904194541 57 99 0.9 6.1 0.00 0.07 0.07 94 1012.2
20260904194017 57 94 1.7 6.1 0.00 0.07 0.07 93 1012.3
20260904193519 57 171 0.0 3.5 0.00 0.07 0.07 94 1012.5
20260904193016 58 172 0.9 6.1 0.00 0.07 0.07 93 1012.2
20260904192515 58 123 1.7 6.1 0.01 0.07 0.07 93 1012.3
20260904192014 58 128 0.0 5.2 0.01 0.07 0.07 93 1012.8
20260904191522 58 103 0.9 5.2 0.01 0.07 0.07 93 1012.5
20260904191015 59 133 0.0 1.7 0.02 0.07 0.07 93 1013.2
20260904190514 59 133 0.0 2.6 0.02 0.07 0.07 93 1012.6
20260904190014 59 133 0.0 2.6 0.02 0.07 0.07 93 1012.6
20260904185517 59 134 0.0 2.6 0.02 0.07 0.07 92 1012.6
20260904185013 60 134 0.0 2.6 0.02 0.07 0.07 93 1012.6
20260904184513 60 129 0.0 2.6 0.06 0.07 0.07 94 1012.4
20260904184012 60 128 0.0 2.6 0.06 0.07 0.07 93 1012.5
20260904183512 60 129 0.0 2.6 0.06 0.07 0.07 93 1012.4
20260904183012 61 100 0.0 3.5 0.06 0.06 0.06 92 1012.3
20260904182515 61 97 0.0 4.3 0.06 0.06 0.06 92 1012.1
20260904182011 62 96 0.0 5.2 0.06 0.06 0.06 92 1011.9
20260904181511 62 91 0.9 7.8 0.06 0.06 0.06 92 1011.9
20260904181012 63 105 1.7 7.8 0.05 0.06 0.06 91 1011.7
20260904180514 64 69 1.7 5.2 0.05 0.06 0.06 89 1011.7
20260904180010 65 142 0.9 9.6 0.05 0.06 0.06 87 1011.8
20260904175510 67 101 2.6 9.6 0.05 0.06 0.06 85 1011.4
20260904175010 69 86 3.5 11.3 0.03 0.04 0.04 81 1011.6
20260904174509 72 74 2.6 11.3 0.00 0.01 0.01 76 1011.3
20260904174008 73 138 6.1 9.6 0.00 0.01 0.01 73 1010.4
20260904173507 73 193 1.7 7.8 0.00 0.01 0.01 73 1010.0
20260904173007 73 215 2.6 8.7 0.00 0.01 0.01 73 1010.0
20260904172507 73 252 1.7 10.4 0.00 0.01 0.01 73 1010.0
20260904172007 73 268 3.5 10.4 0.00 0.01 0.01 73 1009.9
20260904171506 73 282 3.5 9.6 0.00 0.01 0.01 73 1010.0
20260904171006 73 241 2.6 10.4 0.00 0.01 0.01 72 1010.0
20260904170506 74 244 4.3 10.4 0.00 0.01 0.01 72 1010.0
20260904170006 74 241 3.5 8.7 0.00 0.01 0.01 72 1010.1
20260904165506 74 178 2.6 9.6 0.00 0.01 0.01 72 1010.1
20260904165005 74 228 3.5 13.0 0.00 0.01 0.01 72 1010.1
20260904164507 74 209 3.5 13.0 0.00 0.01 0.01 73 1010.1
20260904164005 73 251 2.6 10.4 0.00 0.01 0.01 72 1010.1
20260904163502 74 257 2.6 9.6 0.00 0.01 0.01 73 1010.3
20260904163109 74 222 2.6 8.7 0.00 0.01 0.01 73 1010.3
20260904162502 73 227 3.5 8.7 0.00 0.01 0.01 73 1010.5
20260904162000 73 237 2.6 8.7 0.00 0.01 0.01 73 1010.5
20260904161600 74 273 3.5 10.4 0.00 0.01 0.01 73 1010.6
20260904161104 74 253 3.5 10.4 0.00 0.01 0.01 73 1010.6
20260904160603 74 264 3.5 9.6 0.00 0.01 0.01 74 1010.5
20260904155602 73 229 4.3 9.6 0.00 0.01 0.01 73 1010.6
20260904155101 74 222 4.3 12.2 0.00 0.01 0.01 73 1010.7
20260904154558 74 289 3.5 12.2 0.00 0.01 0.01 72 1010.8
20260904154102 74 241 4.3 12.2 0.00 0.01 0.01 72 1010.9
20260904153658 74 250 4.3 13.9 0.00 0.01 0.01 73 1010.8
20260904153105 74 313 6.1 13.9 0.00 0.01 0.01 72 1010.9
20260904152557 74 234 3.5 9.6 0.00 0.01 0.01 73 1010.7
20260904152056 74 244 4.3 12.2 0.00 0.01 0.01 73 1010.8
20260904151600 74 276 4.3 12.2 0.00 0.01 0.01 72 1010.8
20260904151056 74 265 5.2 11.3 0.00 0.01 0.01 72 1010.8